| time (UTC) | temp C | wind direction | speed KPH | gust KPH | rain 1hr cm | rain 24hr cm | rain mn cm | humidity % | barometer mb |
| 20260508023044 | 16 | 221 | 0.0 | 8.0 | 0.00 | 0.00 | 0.00 | 15 | 1015.3 |
| 20260508021549 | 16 | 142 | 0.0 | 3.2 | 0.00 | 0.00 | 0.00 | 16 | 1015.0 |
| 20260508020050 | 17 | 0 | 0.0 | 3.2 | 0.00 | 0.00 | 0.00 | 16 | 1014.8 |
| 20260508014542 | 18 | 346 | 0.0 | 1.6 | 0.00 | 0.00 | 0.00 | 14 | 1014.5 |
| 20260508013048 | 18 | 0 | 0.0 | 1.6 | 0.00 | 0.00 | 0.00 | 13 | 1014.4 |
| 20260508011545 | 18 | 147 | 0.0 | 3.2 | 0.00 | 0.00 | 0.00 | 12 | 1014.2 |
| 20260508010043 | 19 | 151 | 1.6 | 8.0 | 0.00 | 0.00 | 0.00 | 12 | 1014.2 |
| 20260508004547 | 19 | 0 | 3.2 | 12.9 | 0.00 | 0.00 | 0.00 | 12 | 1014.3 |
| 20260508003041 | 20 | 152 | 4.8 | 16.1 | 0.00 | 0.00 | 0.00 | 12 | 1014.4 |
| 20260508001539 | 20 | 117 | 4.8 | 19.3 | 0.00 | 0.00 | 0.00 | 12 | 1014.4 |
| 20260508000038 | 20 | 0 | 3.2 | 22.5 | 0.00 | 0.00 | 0.00 | 13 | 1014.5 |
| 20260507234549 | 19 | 209 | 11.3 | 25.7 | 0.00 | 0.00 | 0.00 | 12 | 1014.7 |
| 20260507233043 | 20 | 167 | 11.3 | 27.4 | 0.00 | 0.00 | 0.00 | 13 | 1014.6 |
| 20260507231548 | 20 | 128 | 4.8 | 20.9 | 0.00 | 0.00 | 0.00 | 14 | 1014.6 |
| 20260507230043 | 19 | 158 | 6.4 | 22.5 | 0.00 | 0.00 | 0.00 | 17 | 1015.0 |
| 20260507224549 | 20 | 70 | 8.0 | 19.3 | 0.00 | 0.00 | 0.00 | 17 | 1015.0 |
| 20260507223045 | 19 | 211 | 11.3 | 22.5 | 0.00 | 0.00 | 0.00 | 18 | 1015.1 |
| 20260507221545 | 20 | 171 | 9.7 | 22.5 | 0.00 | 0.00 | 0.00 | 18 | 1015.2 |
| 20260507220051 | 20 | 244 | 1.6 | 19.3 | 0.00 | 0.00 | 0.00 | 20 | 1015.4 |
| 20260507214541 | 20 | 136 | 4.8 | 24.1 | 0.00 | 0.00 | 0.00 | 22 | 1015.7 |
| 20260507213040 | 19 | 175 | 0.0 | 32.2 | 0.00 | 0.00 | 0.00 | 24 | 1016.0 |
| 20260507211546 | 19 | 92 | 6.4 | 20.9 | 0.00 | 0.00 | 0.00 | 24 | 1016.3 |
| 20260507210043 | 21 | 159 | 8.0 | 20.9 | 0.00 | 0.00 | 0.00 | 20 | 1016.3 |
| 20260507204540 | 20 | 152 | 1.6 | 20.9 | 0.00 | 0.00 | 0.00 | 21 | 1016.7 |
| 20260507203057 | 19 | 65 | 3.2 | 20.9 | 0.00 | 0.00 | 0.00 | 22 | 1016.9 |
| 20260507201541 | 20 | 190 | 1.6 | 25.7 | 0.00 | 0.00 | 0.00 | 21 | 1017.1 |
| 20260507200049 | 20 | 186 | 6.4 | 19.3 | 0.00 | 0.00 | 0.00 | 20 | 1017.3 |
| 20260507194542 | 20 | 161 | 3.2 | 14.5 | 0.00 | 0.00 | 0.00 | 21 | 1017.5 |
| 20260507193041 | 19 | 62 | 3.2 | 12.9 | 0.00 | 0.00 | 0.00 | 23 | 1017.8 |
| 20260507191539 | 18 | 350 | 6.4 | 17.7 | 0.00 | 0.00 | 0.00 | 22 | 1017.9 |
| 20260507190039 | 18 | 61 | 4.8 | 12.9 | 0.00 | 0.00 | 0.00 | 23 | 1018.1 |
| 20260507184544 | 17 | 169 | 3.2 | 16.1 | 0.00 | 0.00 | 0.00 | 25 | 1018.3 |
| 20260507183044 | 16 | 182 | 4.8 | 14.5 | 0.00 | 0.00 | 0.00 | 24 | 1018.4 |
| 20260507181541 | 16 | 159 | 4.8 | 16.1 | 0.00 | 0.00 | 0.00 | 25 | 1018.8 |
| 20260507180043 | 15 | 157 | 0.0 | 12.9 | 0.00 | 0.00 | 0.00 | 27 | 1018.8 |
| 20260507174550 | 15 | 131 | 3.2 | 14.5 | 0.00 | 0.00 | 0.00 | 28 | 1019.1 |
| 20260507173048 | 13 | 136 | 6.4 | 16.1 | 0.00 | 0.00 | 0.00 | 29 | 1019.4 |
| 20260507171603 | 12 | 96 | 3.2 | 14.5 | 0.00 | 0.00 | 0.00 | 31 | 1019.7 |
| 20260507170042 | 12 | 100 | 3.2 | 9.7 | 0.00 | 0.00 | 0.00 | 33 | 1019.8 |
| 20260507164558 | 11 | 149 | 1.6 | 12.9 | 0.00 | 0.00 | 0.00 | 34 | 1019.8 |
| 20260507163041 | 10 | 129 | 1.6 | 9.7 | 0.00 | 0.00 | 0.00 | 35 | 1020.0 |
| 20260507161544 | 10 | 0 | 1.6 | 11.3 | 0.00 | 0.00 | 0.00 | 36 | 1020.2 |
| 20260507160045 | 9 | 146 | 1.6 | 6.4 | 0.00 | 0.00 | 0.00 | 38 | 1020.3 |
| 20260507154542 | 8 | 0 | 0.0 | 6.4 | 0.00 | 0.00 | 0.00 | 37 | 1020.3 |
| 20260507153049 | 8 | 124 | 1.6 | 9.7 | 0.00 | 0.00 | 0.00 | 40 | 1020.3 |
| 20260507151545 | 7 | 274 | 1.6 | 9.7 | 0.00 | 0.00 | 0.00 | 46 | 1020.2 |
| 20260507150048 | 6 | 0 | 1.6 | 6.4 | 0.00 | 0.00 | 0.00 | 49 | 1020.4 |
| 20260507144540 | 5 | 0 | 0.0 | 4.8 | 0.00 | 0.00 | 0.00 | 55 | 1020.4 |
| 20260507143045 | 3 | 136 | 1.6 | 4.8 | 0.00 | 0.00 | 0.00 | 60 | 1020.4 |
| 20260507141553 | 2 | 0 | 0.0 | 1.6 | 0.00 | 0.00 | 0.00 | 65 | 1020.6 |
| 20260507140045 | 1 | 13 | 0.0 | 1.6 | 0.00 | 0.00 | 0.00 | 66 | 1020.7 |
| 20260507134551 | 1 | 0 | 0.0 | 1.6 | 0.00 | 0.00 | 0.00 | 67 | 1020.8 |
| 20260507133042 | 1 | 0 | 0.0 | 0.0 | 0.00 | 0.00 | 0.00 | 66 | 1020.9 |
| 20260507131541 | 1 | 0 | 0.0 | 0.0 | 0.00 | 0.00 | 0.00 | 66 | 1020.9 |
| 20260507130042 | 1 | 0 | 0.0 | 1.6 | 0.00 | 0.00 | 0.00 | 67 | 1020.9 |
| 20260507124544 | 1 | 0 | 0.0 | 0.0 | 0.00 | 0.00 | 0.00 | 65 | 1020.6 |
| 20260507123042 | 1 | 0 | 0.0 | 0.0 | 0.00 | 0.00 | 0.00 | 65 | 1020.6 |
| 20260507121542 | 1 | 0 | 0.0 | 1.6 | 0.00 | 0.00 | 0.00 | 64 | 1020.6 |
| 20260507120040 | 1 | 0 | 0.0 | 0.0 | 0.00 | 0.00 | 0.00 | 62 | 1020.6 |
| 20260507114546 | 1 | 0 | 0.0 | 0.0 | 0.00 | 0.00 | 0.00 | 63 | 1020.6 |
| 20260507113043 | 1 | 0 | 0.0 | 3.2 | 0.00 | 0.00 | 0.00 | 64 | 1020.6 |
| 20260507111542 | 1 | 0 | 0.0 | 1.6 | 0.00 | 0.00 | 0.00 | 64 | 1020.6 |
| 20260507110053 | 1 | 0 | 0.0 | 1.6 | 0.00 | 0.00 | 0.00 | 64 | 1020.5 |
| 20260507104540 | 1 | 0 | 0.0 | 1.6 | 0.00 | 0.00 | 0.00 | 65 | 1020.5 |
| 20260507103050 | 2 | 0 | 0.0 | 1.6 | 0.00 | 0.00 | 0.00 | 62 | 1020.5 |
| 20260507101547 | 3 | 0 | 0.0 | 4.8 | 0.00 | 0.00 | 0.00 | 60 | 1020.6 |
| 20260507100045 | 3 | 0 | 0.0 | 0.0 | 0.00 | 0.00 | 0.00 | 57 | 1020.5 |
| 20260507094541 | 3 | 0 | 0.0 | 3.2 | 0.00 | 0.00 | 0.00 | 57 | 1020.4 |
| 20260507093040 | 3 | 95 | 0.0 | 3.2 | 0.00 | 0.00 | 0.00 | 56 | 1020.4 |
| 20260507091545 | 3 | 0 | 0.0 | 1.6 | 0.00 | 0.00 | 0.00 | 58 | 1020.3 |
| 20260507090046 | 3 | 0 | 0.0 | 1.6 | 0.00 | 0.00 | 0.00 | 58 | 1020.4 |
| 20260507084543 | 3 | 0 | 0.0 | 3.2 | 0.00 | 0.00 | 0.00 | 58 | 1020.2 |
| 20260507083049 | 3 | 0 | 0.0 | 3.2 | 0.00 | 0.00 | 0.00 | 58 | 1020.3 |
| 20260507081543 | 3 | 0 | 0.0 | 1.6 | 0.00 | 0.00 | 0.00 | 59 | 1020.3 |
| 20260507080048 | 3 | 0 | 0.0 | 1.6 | 0.00 | 0.00 | 0.00 | 60 | 1020.3 |
| 20260507074546 | 3 | 0 | 0.0 | 0.0 | 0.00 | 0.00 | 0.00 | 62 | 1020.2 |
| 20260507073043 | 3 | 0 | 0.0 | 0.0 | 0.00 | 0.00 | 0.00 | 63 | 1020.3 |
| 20260507071543 | 3 | 0 | 0.0 | 0.0 | 0.00 | 0.00 | 0.00 | 62 | 1020.2 |
| 20260507070059 | 4 | 0 | 0.0 | 0.0 | 0.00 | 0.00 | 0.00 | 61 | 1020.0 |
| 20260507064551 | 4 | 0 | 0.0 | 1.6 | 0.00 | 0.00 | 0.00 | 61 | 1019.9 |
| 20260507063051 | 4 | 0 | 0.0 | 1.6 | 0.00 | 0.00 | 0.00 | 61 | 1019.9 |
| 20260507061545 | 4 | 0 | 0.0 | 3.2 | 0.00 | 0.00 | 0.00 | 60 | 1019.6 |
| 20260507060054 | 4 | 0 | 0.0 | 3.2 | 0.00 | 0.00 | 0.00 | 61 | 1019.5 |
| 20260507054547 | 4 | 0 | 0.0 | 0.0 | 0.00 | 0.00 | 0.00 | 61 | 1019.3 |
| 20260507053048 | 4 | 0 | 0.0 | 0.0 | 0.00 | 0.00 | 0.00 | 59 | 1019.3 |
| 20260507051549 | 4 | 0 | 0.0 | 0.0 | 0.00 | 0.00 | 0.00 | 60 | 1019.3 |
| 20260507050043 | 4 | 0 | 0.0 | 0.0 | 0.00 | 0.00 | 0.00 | 62 | 1019.1 |
| 20260507044547 | 5 | 0 | 0.0 | 0.0 | 0.00 | 0.00 | 0.00 | 63 | 1019.0 |
| 20260507043042 | 5 | 0 | 0.0 | 1.6 | 0.00 | 0.00 | 0.00 | 62 | 1018.8 |
| 20260507041542 | 6 | 0 | 0.0 | 1.6 | 0.00 | 0.00 | 0.00 | 60 | 1018.8 |
| 20260507040042 | 6 | 0 | 0.0 | 1.6 | 0.00 | 0.00 | 0.00 | 60 | 1018.6 |
| 20260507034552 | 6 | 0 | 0.0 | 1.6 | 0.00 | 0.03 | 0.00 | 57 | 1018.4 |
| 20260507033047 | 7 | 0 | 0.0 | 3.2 | 0.00 | 0.03 | 0.00 | 56 | 1018.1 |
| 20260507031548 | 7 | 0 | 0.0 | 3.2 | 0.00 | 0.03 | 0.00 | 53 | 1017.7 |
| 20260507030042 | 8 | 77 | 0.0 | 4.8 | 0.00 | 0.03 | 0.00 | 48 | 1017.5 |
| 20260507024555 | 9 | 0 | 0.0 | 6.4 | 0.00 | 0.08 | 0.00 | 42 | 1017.1 |